Weather History for Gonzales, LA

Change the Weather History Date:

Saturday, March 23, 2013

  Actual Average (KBTR) Record (KBTR)
Temperature  
Mean Temperature 68 °F 63 °F  
Max Temperature 71 °F 74 °F 86 °F (1907)
Min Temperature 65 °F 52 °F 33 °F (1955)
Degree Days  
Heating Degree Days 0 4  
Month to date heating degree days 138  
Since 1 July heating degree days 1473  
Cooling Degree Days 3 2  
Month to date cooling degree days 39  
Year to date cooling degree days 70  
Growing Degree Days 18 (Base 50)    
Moisture  
Dew Point 68 °F    
Average Humidity 97    
Maximum Humidity 100    
Minimum Humidity 89    
Precipitation  
Precipitation 0.02 in 0.15 in 2.99 in (1958)
Month to date precipitation 3.21  
Year to date precipitation 13.97  
Snow  
Snow 0.00 in - - ()
Month to date snowfall  
Since 1 July snowfall  
Snow Depth -    
Sea Level Pressure  
Sea Level Pressure 29.70 in    
Wind  
Wind Speed 2 mph (ENE)    
Max Wind Speed 7 mph    
Max Gust Speed -    
Visibility 4 miles    
Events Fog , Rain    
T = Trace of Precipitation, MM = Missing Value Source: NWS Daily Summary

Daily Weather History Graph

Daily Weather History Graph

Search for Another Location

Airport:

Trip Planner

Search our weather history database for the weather conditions in past years. The results will help you decide how hot, cold, wet, or windy it might be!

Date:

Astronomy

Mar. 23, 2013 Rise Set
Actual Time 7:03 AM CDT 7:17 PM CDT
Civil Twilight 6:39 AM CDT 7:41 PM CDT
Nautical Twilight 6:11 AM CDT 8:09 PM CDT
Astronomical Twilight 5:43 AM CDT 8:37 PM CDT
Moon 3:57 PM CDT (3/23) 4:25 AM CDT (3/23)
Length of Visible Light 13h 01m
Length of Day
12h 13m
Waxing Gibbous, 85% of the Moon is Illuminated
Mar 23
Waxing Gibbous
Mar 27
Full
Apr 2
Last Quarter
Apr 10
New
Apr 18
First Quarter

Hourly Weather History & Observations

Time (CDT) Temp. Dew Point Humidity Pressure Visibility Wind Dir Wind Speed Gust Speed Precip Events Conditions
12:15 AM 67.6 °F 65.7 °F 93% 29.82 in 10.0 mi Calm Calm - N/A   Overcast
12:35 AM 68.0 °F 66.4 °F 95% 29.81 in 10.0 mi Calm Calm - N/A   Overcast
12:55 AM 68.5 °F 66.7 °F 94% 29.81 in 7.0 mi Calm Calm - N/A   Overcast
1:15 AM 68.0 °F 66.2 °F 94% 29.81 in 10.0 mi Calm Calm - N/A   Overcast
1:35 AM 67.6 °F 66.2 °F 95% 29.82 in 7.0 mi Calm Calm - N/A   Overcast
1:55 AM 67.3 °F 65.7 °F 95% 29.81 in 10.0 mi Calm Calm - N/A   Overcast
2:15 AM 67.1 °F 65.7 °F 95% 29.80 in 10.0 mi Calm Calm - N/A   Overcast
2:35 AM 67.1 °F 66.0 °F 96% 29.79 in 5.0 mi Calm Calm - N/A   Overcast
3:15 AM 66.6 °F 66.2 °F 99% 29.77 in 1.2 mi Calm Calm - N/A   Overcast
3:35 AM 66.4 °F 66.2 °F 99% 29.77 in 0.5 mi Calm Calm - N/A Fog Fog
3:55 AM 66.2 °F 66.0 °F 99% 29.77 in 0.5 mi Calm Calm - N/A Fog Fog
4:15 AM 66.2 °F 66.2 °F 100% 29.76 in 0.5 mi East 3.5 mph - N/A Fog Fog
4:35 AM 66.2 °F 65.8 °F 99% 29.76 in 0.5 mi Calm Calm - N/A Fog Fog
4:55 AM 66.2 °F 66.2 °F 100% 29.75 in 0.5 mi Calm Calm - N/A Fog Fog
5:15 AM 65.8 °F 65.8 °F 100% 29.75 in 0.2 mi ENE 3.5 mph - N/A Fog Fog
5:35 AM 65.7 °F 65.7 °F 100% 29.75 in 0.5 mi NE 3.5 mph - N/A Fog Fog
5:55 AM 65.5 °F 65.5 °F 100% 29.74 in 0.5 mi Calm Calm - N/A Fog Fog
6:15 AM 65.3 °F 65.3 °F 100% 29.74 in 0.5 mi ENE 4.6 mph - N/A Fog Fog
6:35 AM 65.3 °F 65.3 °F 100% 29.74 in 1.2 mi East 6.9 mph - N/A   Overcast
6:55 AM 65.3 °F 65.3 °F 100% 29.74 in 1.0 mi East 4.6 mph - N/A   Overcast
7:15 AM 65.3 °F 65.3 °F 100% 29.74 in 0.5 mi East 6.9 mph - N/A Fog Fog
7:35 AM 65.3 °F 65.3 °F 100% 29.74 in 0.5 mi ESE 5.8 mph - N/A Fog Fog
8:15 AM 65.7 °F 65.7 °F 100% 29.75 in 0.8 mi ESE 3.5 mph - N/A   Overcast
8:35 AM 66.2 °F 66.0 °F 99% 29.76 in 1.2 mi ESE 3.5 mph - N/A   Overcast
8:55 AM 66.6 °F 66.6 °F 100% 29.77 in 1.8 mi ESE 3.5 mph - N/A   Overcast
9:15 AM 67.1 °F 67.1 °F 100% 29.78 in 3.0 mi Calm Calm - N/A   Overcast
9:35 AM 68.0 °F 67.3 °F 98% 29.79 in 5.0 mi SE 4.6 mph - N/A   Overcast
9:55 AM 68.4 °F 67.5 °F 97% 29.80 in 4.0 mi ESE 4.6 mph - N/A   Overcast
10:15 AM 68.9 °F 67.3 °F 95% 29.80 in 5.0 mi SE 4.6 mph - N/A   Overcast
10:35 AM 69.1 °F 67.5 °F 95% 29.79 in 5.0 mi ESE 3.5 mph - N/A   Overcast
10:55 AM 69.8 °F 67.8 °F 93% 29.78 in 5.0 mi Calm Calm - N/A   Overcast
11:15 AM 70.2 °F 68.0 °F 93% 29.78 in 7.0 mi Calm Calm - N/A   Overcast
11:35 AM 70.9 °F 68.0 °F 91% 29.77 in 5.0 mi NNE 3.5 mph - N/A   Overcast
11:55 AM 71.4 °F 68.0 °F 89% 29.76 in 7.0 mi NNE 4.6 mph - N/A   Overcast
12:15 PM 69.8 °F 67.3 °F 92% 29.76 in 5.0 mi North 4.6 mph - N/A   Overcast
12:35 PM 69.6 °F 67.1 °F 92% 29.74 in 5.0 mi NNE 6.9 mph - N/A   Overcast
12:55 PM 69.3 °F 66.9 °F 92% 29.73 in 4.0 mi ENE 4.6 mph - N/A   Overcast
1:15 PM 68.9 °F 66.6 °F 92% 29.72 in 5.0 mi ENE 6.9 mph - N/A   Overcast
1:35 PM 69.4 °F 66.4 °F 90% 29.70 in 5.0 mi NE 4.6 mph - N/A   Overcast
1:55 PM 70.0 °F 66.7 °F 89% 29.69 in 5.0 mi ENE 5.8 mph - N/A   Overcast
2:15 PM 70.3 °F 66.9 °F 89% 29.67 in 5.0 mi NE 4.6 mph - N/A   Overcast
2:35 PM 70.3 °F 66.9 °F 89% 29.66 in 5.0 mi NE 5.8 mph - N/A   Overcast
2:55 PM 70.0 °F 67.1 °F 91% 29.66 in 5.0 mi NNE 4.6 mph - N/A   Overcast
3:15 PM 69.8 °F 67.1 °F 91% 29.65 in 5.0 mi NE 5.8 mph - N/A   Overcast
3:35 PM 69.6 °F 67.3 °F 92% 29.64 in 4.0 mi NNE 6.9 mph - N/A Rain Light Rain
3:55 PM 69.1 °F 68.0 °F 96% 29.62 in 2.5 mi NE 5.8 mph - N/A   Drizzle
4:15 PM 69.1 °F 68.4 °F 98% 29.61 in 1.8 mi NE 4.6 mph - N/A   Light Drizzle
4:35 PM 69.1 °F 68.5 °F 98% 29.60 in 1.8 mi NNE 3.5 mph - N/A   Light Drizzle
4:55 PM 69.1 °F 68.5 °F 98% 29.59 in 1.5 mi NE 4.6 mph - N/A   Drizzle
5:15 PM 68.9 °F 68.4 °F 98% 29.59 in 1.8 mi Calm Calm - 0.01 in Rain Rain
5:35 PM 68.9 °F 68.5 °F 99% 29.59 in 2.0 mi Calm Calm - 0.01 in   Light Drizzle
5:55 PM 69.1 °F 68.9 °F 99% 29.59 in 1.5 mi Calm Calm - 0.01 in   Drizzle
6:15 PM 69.1 °F 68.9 °F 99% 29.59 in 1.8 mi Calm Calm - N/A   Drizzle
6:35 PM 69.3 °F 68.9 °F 99% 29.58 in 3.0 mi Calm Calm - N/A   Overcast
6:55 PM 69.6 °F 69.1 °F 98% 29.57 in 4.0 mi Calm Calm - N/A   Overcast
7:15 PM 69.8 °F 69.3 °F 98% 29.57 in 4.0 mi Calm Calm - N/A   Overcast
7:35 PM 69.8 °F 69.3 °F 98% 29.57 in 4.0 mi Calm Calm - N/A   Overcast
7:55 PM 69.4 °F 69.3 °F 99% 29.56 in 4.0 mi Calm Calm - N/A   Overcast
8:15 PM 69.8 °F 69.3 °F 98% 29.57 in 5.0 mi Calm Calm - N/A Rain Rain
8:35 PM 69.8 °F 69.4 °F 99% 29.58 in 5.0 mi Calm Calm - N/A   Overcast
8:55 PM 69.8 °F 69.4 °F 99% 29.57 in 4.0 mi Calm Calm - N/A   Overcast
9:15 PM 69.8 °F 69.4 °F 99% 29.58 in 3.0 mi Calm Calm - N/A   Overcast
9:35 PM 70.0 °F 69.8 °F 99% 29.59 in 3.0 mi SSW 3.5 mph - N/A   Overcast
9:55 PM 70.7 °F 70.3 °F 99% 29.59 in 3.0 mi SSW 4.6 mph - 0.01 in Rain Light Rain
10:15 PM 70.7 °F 70.7 °F 100% 29.59 in 2.5 mi SSW 4.6 mph - N/A   Overcast
10:35 PM 70.7 °F 70.7 °F 100% 29.60 in 2.0 mi West 4.6 mph - N/A   Overcast
10:55 PM 70.7 °F 70.5 °F 99% 29.60 in 2.0 mi SW 3.5 mph - N/A   Overcast
11:15 PM 70.7 °F 70.3 °F 99% 29.60 in 3.0 mi SW 5.8 mph - N/A   Overcast
11:35 PM 70.7 °F 70.2 °F 98% 29.61 in 4.0 mi SW 4.6 mph - N/A   Overcast
11:55 PM 70.5 °F 70.0 °F 98% 29.61 in 5.0 mi WSW 4.6 mph - N/A   Overcast